This demonstration page uses our WeatherBlox Daily Observations layout. Learn more.

Left ArrowRight Arrow

39.51506, -84.39828

Hourly Observations for September 21, 2015

Temp ( °F °C ) Dew Point ( °F °C ) Humidity (%) Winds ( mph kmh ) Pressure ( in mb ) Visibility ( mi km ) Precip ( " mm )
12:15 am 00:15 Partly Cloudy 57 13.8 52 11.1 84 84 NNE 3 6 30.12 1020 7 11.26538 0 0
12:35 am 00:35 Partly Cloudy 55 12.9 51 10.4 85 85 N 5 7 30.12 1020 10 16.0934 0 0
12:55 am 00:55 Mostly Cloudy 57 13.8 51 10.7 82 82 N 6 9 30.12 1020 10 16.0934 0 0
1:15 am 01:15 Mostly Cloudy 55 12.7 50 9.8 83 83 N 6 9 30.12 1020 10 16.0934 0 0
1:35 am 01:35 Cloudy 57 13.8 51 10.8 82 82 N 5 7 30.12 1020 10 16.0934 0 0
1:55 am 01:55 Partly Cloudy 56 13.1 50 10.1 82 82 N 6 9 30.12 1020 10 16.0934 0 0
2:15 am 02:15 Clear 55 12.5 49 9.6 83 83 N 6 9 30.12 1020 10 16.0934 0 0
2:35 am 02:35 Clear 55 12.5 50 9.8 84 84 N 6 9 30.12 1020 10 16.0934 0 0
2:55 am 02:55 Clear 55 12.5 50 10 85 85 N 6 9 30.12 1020 10 16.0934 0 0
3:15 am 03:15 Clear 55 12.5 50 10 85 85 N 5 7 30.12 1020 10 16.0934 0 0
3:35 am 03:35 Clear 55 12.5 50 10 85 85 N 5 7 30.09 1019 10 16.0934 0 0
3:55 am 03:55 Clear 55 12.5 50 10 85 85 NNE 3 6 30.09 1019 10 16.0934 0 0
4:15 am 04:15 Clear 55 12.5 50 10 85 85 undefined N/A N/A 10 16.0934 0 0
4:35 am 04:35 Clear N/A N/A N/A undefined N/A N/A 10 16.0934 0 0
4:55 am 04:55 Clear 55 12.5 50 10 85 85 NNE 5 7 30.09 1019 10 16.0934 0 0
5:15 am 05:15 Clear 55 12.5 50 10 85 85 NNE 5 7 30.09 1019 10 16.0934 0 0
5:35 am 05:35 Clear 55 12.5 50 10 85 85 NNE 3 6 30.12 1020 10 16.0934 0 0
5:55 am 05:55 Clear 53 11.5 48 9.1 85 85 NNE 3 6 30.12 1020 10 16.0934 0 0
6:15 am 06:15 Clear N/A N/A N/A NNE 5 7 N/A 10 16.0934 0 0
6:35 am 06:35 Clear N/A N/A N/A undefined N/A N/A 10 16.0934 0 0
6:55 am 06:55 Clear N/A N/A N/A undefined N/A N/A 10 16.0934 0 0
7:15 am 07:15 Clear N/A N/A N/A undefined N/A N/A 10 16.0934 0 0
7:35 am 07:35 Sunny 51 10.3 47 8.2 87 87 Calm 30.12 1020 10 16.0934 0 0
7:55 am 07:55 Sunny 52 11 48 9 88 88 Calm 30.12 1020 10 16.0934 0 0
8:15 am 08:15 Sunny 55 12.5 50 10 85 85 NNE 3 6 30.15 1021 7 11.26538 0 0
8:35 am 08:35 Sunny 55 12.5 50 9.8 84 84 Calm 30.15 1021 10 16.0934 0 0
8:55 am 08:55 Sunny 57 13.8 51 10.6 81 81 Calm 30.15 1021 10 16.0934 0 0
9:15 am 09:15 Sunny 59 15 52 11 77 77 NNE 3 6 30.15 1021 10 16.0934 0 0
9:35 am 09:35 Sunny 60 15.3 51 10.5 73 73 NE 5 7 30.15 1021 10 16.0934 0 0
9:55 am 09:55 Sunny 61 16 51 10.3 69 69 ENE 3 6 30.15 1021 10 16.0934 0 0
10:15 am 10:15 Sunny 62 16.6 51 10.3 67 67 Calm 30.12 1020 10 16.0934 0 0
10:35 am 10:35 Sunny 64 18 51 10.7 63 63 Calm 30.12 1020 10 16.0934 0 0
10:55 am 10:55 Sunny 69 20.3 53 11.5 57 57 Calm 30.12 1020 10 16.0934 0 0
11:15 am 11:15 Sunny 69 20.8 51 10.6 52 52 ENE 5 7 30.12 1020 10 16.0934 0 0
11:35 am 11:35 Sunny 71 21.6 49 9.5 46 46 NE 7 11 30.12 1020 10 16.0934 0 0
11:55 am 11:55 Sunny 74 23.6 50 9.8 42 42 NE 8 13 30.12 1020 10 16.0934 0 0
12:15 pm 12:15 Sunny 74 23.6 47 8.6 38 38 N 8 13 30.12 1020 10 16.0934 0 0
12:35 pm 12:35 Sunny 74 23.6 46 8 37 37 NE 3 6 30.09 1019 10 16.0934 0 0
12:55 pm 12:55 Sunny 74 23.6 46 7.6 36 36 NE 7 11 30.09 1019 10 16.0934 0 0
1:15 pm 13:15 Sunny 74 23.6 44 6.5 33 33 Calm 30.09 1019 10 16.0934 0 0
1:35 pm 13:35 Sunny 74 23.6 43 6.3 33 33 N 7 11 30.09 1019 10 16.0934 0 0
1:55 pm 13:55 Sunny 77 25.1 45 7.4 32 32 ENE 8 13 30.09 1019 10 16.0934 0 0
2:15 pm 14:15 Sunny 77 24.9 45 7.4 33 33 ESE 7 11 30.06 1018 10 16.0934 0 0
2:35 pm 14:35 Partly Cloudy 77 24.9 44 6.9 32 32 Calm 30.06 1018 10 16.0934 0 0
2:55 pm 14:55 Partly Cloudy 77 25.1 44 6.8 31 31 ESE 5 7 30.06 1018 10 16.0934 0 0
3:15 pm 15:15 Partly Cloudy 77 25.1 44 6.4 30 30 NW 5 7 30.06 1018 10 16.0934 0 0
3:35 pm 15:35 Partly Cloudy 77 25.1 44 6.4 30 30 E 3 6 30.06 1018 10 16.0934 0 0
3:55 pm 15:55 Sunny 77 25.1 43 6 29 29 NNE 5 7 30.06 1018 10 16.0934 0 0
4:15 pm 16:15 Partly Cloudy 77 25.1 42 5.4 28 28 NE 8 13 30.06 1018 10 16.0934 0 0
4:35 pm 16:35 Sunny 77 25.2 42 5.5 28 28 E 6 9 30.06 1018 10 16.0934 0 0
4:55 pm 16:55 Sunny 77 25.1 42 5.6 29 29 Calm 30.06 1018 10 16.0934 0 0
5:15 pm 17:15 Sunny 78 25.3 42 5.7 28 28 Calm 30.06 1018 10 16.0934 0 0
5:35 pm 17:35 Sunny 77 25.1 43 6.2 30 30 ENE 6 9 30.06 1018 10 16.0934 0 0
5:55 pm 17:55 Sunny 77 25.1 43 6.1 30 30 NE 6 9 30.06 1018 10 16.0934 0 0
6:15 pm 18:15 Sunny 77 25.1 44 6.9 31 31 NNE 6 9 30.06 1018 10 16.0934 0 0
6:35 pm 18:35 Sunny 77 25.1 44 6.5 30 30 NNE 6 9 30.06 1018 10 16.0934 0 0
6:55 pm 18:55 Sunny 74 23.6 44 6.8 34 34 NE 3 6 30.06 1018 10 16.0934 0 0
7:15 pm 19:15 Sunny 74 23.6 48 8.8 39 39 NE 3 6 30.06 1018 10 16.0934 0 0
7:35 pm 19:35 Sunny 69 20.8 55 12.7 60 60 Calm 30.06 1018 10 16.0934 0 0
7:55 pm 19:55 Clear 63 17 53 11.9 72 72 Calm 30.06 1018 10 16.0934 0 0
8:15 pm 20:15 Clear 61 16.1 52 11.1 72 72 NNW 3 6 30.12 1020 10 16.0934 0 0
8:35 pm 20:35 Clear 60 15.7 53 11.9 78 78 Calm 30.12 1020 10 16.0934 0 0
8:55 pm 20:55 Clear 60 15.3 52 11.1 76 76 Calm 30.12 1020 10 16.0934 0 0
9:15 pm 21:15 Clear 60 15.3 52 11 76 76 Calm 30.12 1020 10 16.0934 0 0
9:35 pm 21:35 Clear 60 15.3 52 11 76 76 NNE 3 6 30.12 1020 10 16.0934 0 0
9:55 pm 21:55 Clear 58 14.5 51 10.5 77 77 NNE 5 7 30.12 1020 10 16.0934 0 0
10:15 pm 22:15 Clear 60 15.3 51 10.7 74 74 NNE 5 7 30.12 1020 10 16.0934 0 0
10:35 pm 22:35 Clear 59 15.1 51 10.5 74 74 NNE 3 6 30.12 1020 10 16.0934 0 0
10:55 pm 22:55 Clear 60 15.3 52 10.9 75 75 NNE 3 6 30.12 1020 10 16.0934 0 0
11:15 pm 23:15 Clear 57 13.8 49 9.6 76 76 N 3 6 30.12 1020 10 16.0934 0 0
11:35 pm 23:35 Clear 57 13.8 50 9.9 78 78 N 5 7 30.15 1021 10 16.0934 0 0
11:55 pm 23:55 Clear 57 13.8 51 10.8 82 82 NNE 3 6 30.15 1021 10 16.0934 0 0

Powered by AerisWeather